Overview Statistics Trail Chart Weather Telemetry Raw packets
 

This is the latest recevied weather packets stored in our database for station/object KO4ZGL-13. If no packets are shown the sender has not sent any weather packets the latest 10 day(s).

<< 1 2 3 4 5 6 >>
Time Temp. Humidity Pressure Rain* Wind** Luminosity Snow
1788642677 36.11° C 60% 1010.5 hPa 0 mm - 327 W/m² -
1788642373 36.67° C 62% 1010.2 hPa 0 mm - 354 W/m² -
1788642068 36.67° C 58% 1010.3 hPa 0 mm - 335 W/m² -
1788641766 36.67° C 61% 1010.5 hPa 0 mm - 363 W/m² -
1788641461 36.11° C 61% 1010.4 hPa 0 mm - 359 W/m² -
1788641155 36.11° C 67% 1010.3 hPa 0 mm - 403 W/m² -
1788640851 36.11° C 64% 1010.1 hPa 0 mm - 436 W/m² -
1788640550 36.67° C 62% 1010.1 hPa 0 mm - 430 W/m² -
1788640246 36.67° C 62% 1010.2 hPa 0 mm - 441 W/m² -
1788639941 36.67° C 63% 1010.1 hPa 0 mm - 442 W/m² -
1788639637 36.11° C 62% 1010.2 hPa 0 mm - 408 W/m² -
1788639332 36.11° C 63% 1010.4 hPa 0 mm - 474 W/m² -
1788639032 36.11° C 64% 1010.4 hPa 0 mm - 144 W/m² -
1788638727 35° C 66% 1010.4 hPa 0 mm - 509 W/m² -
1788638426 35° C 67% 1010.1 hPa 0 mm - 86 W/m² -
1788638121 36.67° C 64% 1010.5 hPa 0 mm - 77 W/m² -
1788637816 36.67° C 60% 1010.6 hPa 0 mm - 522 W/m² -
1788637515 36.67° C 60% 1010.7 hPa 0 mm - 504 W/m² -
1788637209 36.67° C 61% 1010.7 hPa 0 mm - 551 W/m² -
1788636905 37.22° C 61% 1010.6 hPa 0 mm - 586 W/m² -
1788636600 36.67° C 64% 1010.7 hPa 0 mm - 564 W/m² -
1788636295 36.11° C 64% 1010.9 hPa 0 mm - 563 W/m² -
1788635991 36.11° C 63% 1011.1 hPa 0 mm - 586 W/m² -
1788635690 35.56° C 62% 1011.1 hPa 0 mm - 549 W/m² -
1788635389 36.67° C 62% 1011.1 hPa 0 mm - 563 W/m² -

* Rain latest hour (hover to see other rain measurements)
** Current wind speed in m/s (hover to see current wind gust speed)